Wind_Speed
31 31 31 29 31 33 36 37 39 39 39 39 36 34 33 34 34 33 31 28 27 27 23 23 21 19 20 22 21 18 16 15 15 16 17 16 14 12 11 9 8 10 11
19 23 25 30 32 33 34 35 38 40 40 40 39 37 36 35 34 32 30 29 26 25 25 22 21 19 17 17 19 21 18 15 15 15 15 13 12 11 9 9 8 8 11
27 26 25 26 28 31 34 36 38 39 39 38 38 38 38 38 36 33 29 28 26 23 25 24 22 20 17 15 16 19 21 18 16 15 15 16 14 12 10 9 9 9 10
29 29 31 33 33 35 36 39 40 40 40 41 41 39 37 35 36 35 32 28 26 24 23 25 24 20 19 17 18 19 20 19 17 14 14 15 15 14 13 11 11 10 10
26 27 29 30 32 32 35 37 37 36 37 38 37 37 36 36 35 35 34 30 28 24 24 23 24 22 21 21 20 18 18 19 16 15 14 15 16 15 13 13 13 12 12
26 26 27 29 31 31 32 33 33 34 34 37 37 35 32 33 35 36 35 33 31 27 24 23 23 24 22 22 20 17 17 17 17 15 15 15 14 15 15 14 16 16 15
26 28 29 29 30 31 32 32 32 31 33 33 35 34 32 31 33 34 35 34 33 30 26 24 23 23 22 21 20 17 16 16 16 14 15 14 15 15 14 14 15 15 17
29 30 31 31 32 32 34 36 33 32 34 34 32 32 30 31 32 35 35 34 33 32 29 26 25 23 23 20 20 19 18 16 14 12 13 14 13 12 15 16 18 18 18
32 33 33 33 35 36 36 37 38 39 38 36 34 33 33 31 31 33 39 33 31 32 31 30 27 25 23 21 19 19 20 17 14 13 12 14 14 15 18 22 22 18 18
28 29 33 38 40 39 41 43 43 42 43 39 37 35 31 32 31 31 32 35 33 31 32 31 28 28 26 22 20 19 19 18 15 13 12 14 15 17 19 19 15 14 13
33 37 40 43 42 43 46 47 43 42 43 42 41 40 39 38 36 35 33 35 32 31 34 34 30 29 30 27 22 18 19 19 17 16 14 14 15 17 16 13 11 9 7
42 42 41 42 47 47 49 47 48 47 45 46 45 46 44 41 40 39 37 40 35 39 40 36 34 31 31 30 28 22 18 18 19 19 18 16 16 16 16 11 10 10 11
45 45 48 50 54 54 54 53 51 48 47 44 46 48 48 47 46 44 42 42 41 40 39 35 33 32 31 30 32 30 22 19 20 21 20 17 15 15 11 10 11 11 13
56 57 57 58 60 59 63 61 56 56 55 52 50 51 50 50 50 50 48 46 46 44 42 38 37 38 35 32 31 33 29 24 18 19 21 19 16 14 12 12 12 13 14
57 61 63 68 73 73 73 67 61 61 62 61 60 56 55 53 55 55 54 54 52 49 45 43 41 39 37 32 29 31 28 28 22 19 21 21 17 14 12 13 14 15 16
61 63 68 71 72 71 71 68 65 67 68 68 68 69 69 66 60 59 59 59 58 56 52 49 46 43 41 35 33 31 30 31 29 24 20 22 20 16 15 14 14 14 15
65 70 73 75 75 73 72 72 72 74 76 76 76 74 70 66 62 59 57 57 61 61 59 55 52 48 45 42 39 36 32 25 27 28 23 23 22 18 17 13 12 12 11
71 76 78 75 75 75 76 78 81 81 80 76 75 75 73 71 65 59 60 60 59 59 60 59 58 54 50 47 45 48 40 33 26 31 28 25 20 22 18 15 13 12 11
82 83 84 82 82 84 86 86 83 80 77 76 74 72 72 69 63 62 61 60 59 60 61 60 59 59 55 50 53 48 46 44 35 30 30 28 24 22 20 17 14 14 11
87 86 86 86 87 87 84 80 78 76 73 70 67 63 60 54 54 54 53 51 50 55 58 58 57 57 58 57 57 56 49 46 39 39 36 32 28 24 22 20 16 15 12
85 87 88 87 84 81 79 74 72 67 63 58 53 49 46 43 44 44 43 42 42 41 45 51 57 59 60 60 62 64 56 46 45 40 37 37 32 31 25 22 18 16 16
87 86 84 80 78 74 70 64 59 53 48 44 43 41 40 38 38 34 36 37 37 37 37 37 41 51 58 61 62 63 61 58 51 43 46 41 34 26 26 27 22 21 18
82 79 76 73 68 63 57 51 44 41 39 39 38 37 35 34 32 30 30 31 30 30 31 32 33 37 47 56 62 63 64 63 56 54 46 47 42 37 33 28 26 26 22
76 72 66 61 56 49 42 39 38 37 37 37 35 35 34 33 31 29 28 28 27 25 26 27 27 31 35 45 55 61 63 64 62 56 52 47 43 44 38 34 29 29 30
67 61 56 49 42 38 36 36 36 37 37 37 35 34 33 32 31 29 29 29 29 29 28 28 28 27 30 35 44 54 63 66 67 61 55 53 54 49 46 41 34 37 32
55 49 42 38 35 34 35 36 37 37 37 36 34 33 32 30 29 28 27 29 31 32 31 30 30 30 30 33 36 44 58 66 70 69 62 61 53 51 48 46 42 38 38
Wind_Direction
299 300 299 296 297 298 296 296 298 298 300 300 300 302 305 307 307 310 314 318 324 327 325 333 336 348 359 3 0 359 355 346 333 323 321 318 318 312 301 297 286 283 276
315 306 306 300 302 302 304 304 303 302 299 298 296 297 300 301 303 304 308 312 316 322 321 321 328 334 342 356 0 354 343 335 331 329 328 329 327 312 305 302 290 275 267
318 316 311 307 307 309 309 308 306 306 306 305 302 302 303 301 298 298 300 304 308 314 316 317 317 321 322 331 349 353 351 335 325 322 318 317 315 315 314 300 289 283 280
323 320 318 320 319 317 316 313 309 308 307 305 304 303 301 300 300 297 295 295 300 303 309 313 313 314 312 313 320 335 346 342 334 327 317 311 310 310 301 296 292 279 273
322 322 324 322 321 321 324 321 317 313 309 308 308 308 303 303 303 300 296 291 292 295 298 305 309 307 306 306 311 314 333 342 334 322 321 311 305 299 298 293 283 278 269
336 331 329 328 326 325 327 330 323 319 312 310 313 317 308 303 302 299 296 290 286 287 290 296 302 306 305 302 304 304 320 333 335 323 317 318 313 309 301 293 289 286 285
328 328 327 327 325 326 327 328 328 327 322 315 312 311 310 304 302 302 300 292 284 284 284 287 292 299 304 303 299 294 308 321 332 321 319 312 302 305 305 300 292 287 279
328 328 330 330 327 328 329 328 328 324 323 322 320 317 310 313 306 299 296 296 283 280 281 282 284 289 295 303 298 290 296 305 322 316 311 313 303 302 307 308 304 295 282
328 330 332 332 330 331 329 325 325 322 319 319 317 315 315 309 306 302 304 301 288 276 277 278 281 282 287 293 297 291 286 290 305 312 310 306 298 295 295 300 299 292 283
327 332 333 333 329 329 329 325 326 321 319 317 314 309 305 304 305 304 303 300 301 283 275 277 277 280 280 283 291 294 285 282 288 294 308 310 304 301 304 301 290 291 281
315 314 317 322 322 322 327 324 317 313 311 309 306 304 303 301 299 296 298 296 295 291 286 275 274 274 275 274 273 282 285 277 277 287 304 317 311 314 311 297 288 272 272
319 315 320 322 321 320 322 323 318 315 306 305 304 302 300 299 296 293 285 286 288 277 285 278 273 268 269 273 271 267 273 273 268 275 287 307 311 316 311 282 279 265 272
317 312 312 315 317 316 318 317 315 308 302 297 296 295 296 296 294 291 288 285 282 279 280 280 269 266 265 265 269 264 259 264 266 266 274 288 306 311 302 290 282 283 283
306 306 307 309 308 311 317 315 311 308 307 302 295 292 290 289 289 289 288 285 281 278 275 273 271 266 264 261 262 269 258 256 261 265 264 274 290 298 299 282 290 293 293
304 303 304 306 306 301 307 311 308 305 304 303 301 296 293 288 286 285 283 281 278 276 273 268 264 264 259 255 256 260 270 253 252 256 257 261 269 287 286 282 285 295 300
304 303 305 306 306 307 307 306 304 303 302 301 301 299 297 294 289 281 278 274 271 269 266 264 260 256 257 248 246 250 259 268 250 245 252 256 260 268 281 275 285 295 300
300 302 302 304 306 306 304 304 303 303 302 301 300 297 295 292 290 284 279 273 268 264 261 257 255 252 248 247 236 241 246 255 280 249 242 246 249 253 272 267 275 286 294
299 304 306 306 305 305 304 305 304 302 301 301 298 296 294 293 292 284 280 274 267 263 260 255 251 247 243 243 239 236 243 243 254 255 239 245 238 249 254 268 262 265 289
303 305 306 306 305 305 305 303 302 302 301 299 298 297 295 293 288 282 278 272 267 262 256 253 249 246 240 231 240 238 234 236 241 260 231 236 235 240 244 256 251 252 255
303 304 304 304 304 304 303 303 302 302 301 300 297 294 291 290 286 281 279 276 267 259 254 250 247 242 240 233 229 233 233 230 232 234 247 228 236 227 228 241 244 243 227
300 301 303 303 303 303 304 305 304 303 300 297 295 294 292 290 287 285 281 275 272 267 259 252 245 238 233 230 228 231 231 223 230 233 235 225 225 226 223 218 226 223 205
300 302 303 304 304 305 306 304 303 301 299 298 298 297 297 294 291 289 281 277 271 267 264 259 249 241 234 230 226 226 227 229 227 221 218 227 204 210 218 221 207 207 205
303 303 304 305 305 305 304 303 302 301 302 302 302 301 300 298 298 294 286 281 275 270 265 259 254 245 236 230 225 223 221 218 221 219 222 226 225 219 210 210 214 201 199
302 304 304 304 303 303 302 301 302 303 305 305 305 304 301 299 298 294 286 281 277 274 272 266 257 248 243 232 226 222 219 217 214 214 209 214 220 199 201 214 209 208 191
304 303 302 302 301 300 300 302 303 303 303 304 305 304 302 299 296 291 285 280 276 272 270 269 263 253 244 239 229 221 217 214 212 209 208 210 212 213 206 208 202 197 199
301 300 300 299 299 300 301 302 303 303 303 303 302 301 301 300 296 294 289 281 275 272 269 267 262 258 247 240 234 226 217 213 210 208 206 200 204 207 202 197 200 204 202
Height
5795 5794 5791 5788 5786 5784 5780 5777 5773 5770 5767 5763 5760 5757 5754 5751 5748 5744 5741 5736 5732 5727 5722 5716 5711 5706 5701 5696 5692 5686 5682 5679 5677 5674 5672 5669 5667 5666 5666 5666 5666 5667 5669
5788 5786 5784 5782 5779 5776 5772 5769 5765 5761 5758 5754 5752 5749 5746 5743 5740 5737 5735 5731 5727 5722 5718 5713 5709 5704 5700 5695 5691 5686 5682 5679 5676 5674 5671 5669 5667 5666 5664 5665 5666 5666 5666
5782 5779 5779 5776 5773 5769 5765 5761 5757 5753 5750 5746 5744 5740 5738 5735 5732 5729 5727 5725 5721 5717 5713 5708 5705 5701 5698 5693 5689 5685 5680 5677 5673 5671 5668 5667 5666 5665 5664 5663 5663 5663 5664
5777 5774 5771 5768 5765 5762 5758 5754 5749 5745 5742 5738 5735 5732 5729 5726 5724 5721 5719 5717 5714 5710 5707 5703 5700 5697 5694 5691 5687 5683 5678 5674 5670 5668 5667 5665 5663 5663 5662 5661 5660 5660 5660
5772 5770 5767 5763 5760 5757 5752 5747 5742 5738 5734 5730 5727 5723 5720 5718 5716 5713 5711 5709 5707 5704 5701 5697 5695 5692 5689 5686 5683 5680 5676 5672 5668 5666 5663 5662 5661 5660 5659 5659 5657 5657 5657
5768 5766 5763 5759 5755 5751 5747 5742 5737 5732 5727 5723 5720 5716 5712 5709 5707 5704 5703 5702 5699 5697 5695 5692 5689 5687 5684 5681 5679 5677 5674 5670 5666 5663 5661 5659 5657 5656 5655 5654 5653 5652 5652
5764 5760 5757 5753 5749 5745 5741 5736 5732 5728 5723 5719 5714 5710 5706 5702 5699 5696 5694 5693 5692 5690 5688 5686 5684 5681 5679 5676 5674 5672 5670 5667 5664 5661 5659 5656 5655 5653 5652 5650 5649 5648 5647
5758 5754 5751 5747 5743 5740 5735 5730 5726 5723 5718 5712 5708 5704 5700 5696 5692 5687 5685 5684 5682 5682 5682 5680 5678 5675 5673 5671 5669 5667 5665 5663 5660 5657 5655 5653 5652 5650 5648 5646 5644 5643 5642
5750 5746 5743 5741 5736 5733 5729 5724 5720 5716 5711 5707 5702 5697 5693 5690 5686 5682 5678 5676 5673 5673 5673 5672 5672 5670 5668 5666 5664 5662 5660 5659 5657 5654 5652 5650 5648 5647 5645 5642 5639 5637 5636
5743 5740 5737 5734 5730 5726 5722 5716 5712 5707 5703 5699 5696 5691 5686 5683 5680 5675 5670 5667 5667 5665 5664 5664 5664 5663 5661 5659 5657 5656 5655 5654 5653 5651 5649 5646 5643 5642 5640 5637 5635 5632 5631
5738 5734 5729 5726 5721 5715 5711 5706 5702 5697 5693 5689 5685 5680 5677 5674 5672 5668 5664 5660 5659 5657 5656 5655 5656 5656 5654 5653 5651 5650 5649 5648 5648 5647 5644 5642 5639 5637 5634 5633 5632 5630 5629
5728 5723 5718 5714 5709 5704 5700 5695 5690 5686 5683 5678 5675 5669 5665 5664 5660 5658 5656 5652 5649 5648 5645 5645 5647 5646 5645 5645 5645 5643 5642 5642 5642 5642 5641 5639 5636 5633 5630 5629 5628 5627 5626
5716 5710 5705 5702 5697 5692 5687 5681 5676 5672 5669 5667 5662 5657 5653 5650 5647 5644 5643 5640 5638 5636 5635 5634 5634 5636 5636 5636 5636 5635 5635 5634 5634 5635 5635 5634 5632 5630 5627 5626 5625 5624 5623
5704 5698 5692 5688 5683 5677 5671 5666 5661 5656 5652 5650 5647 5643 5640 5636 5633 5630 5628 5626 5623 5623 5623 5623 5621 5623 5625 5626 5626 5626 5627 5627 5627 5628 5629 5629 5628 5626 5624 5623 5622 5620 5619
5689 5683 5677 5672 5666 5660 5654 5650 5644 5638 5634 5630 5626 5624 5621 5619 5615 5612 5611 5608 5607 5607 5608 5608 5609 5609 5612 5614 5615 5616 5617 5618 5620 5621 5621 5622 5623 5622 5620 5619 5618 5617 5615
5672 5666 5660 5653 5648 5641 5635 5630 5624 5618 5614 5609 5605 5601 5596 5593 5591 5589 5587 5586 5586 5586 5588 5590 5593 5595 5597 5601 5605 5607 5608 5610 5611 5613 5615 5616 5617 5618 5617 5616 5614 5613 5611
5655 5648 5642 5635 5628 5621 5615 5609 5603 5596 5589 5584 5579 5574 5571 5567 5565 5561 5561 5561 5560 5563 5566 5569 5573 5577 5581 5585 5591 5594 5598 5600 5602 5606 5607 5608 5610 5611 5612 5611 5611 5609 5607
5636 5629 5622 5614 5607 5600 5592 5585 5578 5570 5563 5558 5550 5548 5543 5541 5541 5534 5533 5534 5535 5538 5542 5546 5550 5557 5563 5569 5574 5579 5584 5589 5592 5593 5598 5601 5604 5605 5607 5607 5607 5607 5605
5616 5607 5599 5591 5583 5575 5568 5561 5552 5544 5538 5530 5525 5519 5515 5514 5512 5504 5504 5506 5508 5511 5516 5522 5527 5534 5542 5550 5556 5562 5570 5576 5580 5584 5588 5592 5595 5598 5601 5603 5602 5603 5603
5594 5584 5577 5569 5560 5552 5544 5535 5527 5519 5513 5506 5499 5494 5489 5486 5483 5480 5478 5482 5484 5485 5489 5497 5504 5512 5521 5530 5538 5545 5553 5562 5569 5572 5576 5581 5587 5588 5593 5597 5598 5600 5601
5572 5563 5554 5544 5536 5528 5519 5511 5503 5496 5489 5483 5477 5473 5471 5468 5464 5464 5463 5461 5462 5464 5466 5470 5477 5485 5494 5505 5518 5528 5538 5548 5555 5562 5565 5570 5576 5581 5584 5589 5594 5596 5598
5548 5540 5530 5522 5513 5505 5497 5489 5482 5477 5471 5467 5463 5459 5456 5453 5450 5449 5447 5446 5447 5448 5450 5452 5456 5463 5472 5484 5496 5507 5519 5531 5540 5549 5554 5560 5568 5570 5576 5583 5585 5591 5595
5525 5517 5509 5501 5493 5485 5478 5472 5467 5463 5458 5455 5450 5447 5444 5441 5439 5437 5435 5434 5435 5435 5436 5439 5442 5446 5452 5461 5472 5484 5495 5507 5521 5534 5541 5549 5557 5562 5569 5575 5582 5582 5588
5504 5496 5489 5482 5475 5468 5463 5459 5455 5451 5448 5444 5440 5436 5433 5430 5428 5426 5425 5424 5425 5426 5426 5427 5430 5433 5437 5443 5452 5464 5479 5492 5504 5517 5528 5537 5547 5555 5561 5568 5574 5580 5581
5483 5477 5470 5464 5459 5455 5451 5448 5444 5441 5437 5433 5430 5426 5423 5420 5418 5416 5415 5414 5415 5416 5417 5418 5419 5422 5426 5429 5436 5445 5456 5471 5486 5500 5512 5523 5534 5542 5551 5559 5566 5570 5578
5466 5460 5455 5451 5448 5444 5441 5437 5434 5430 5426 5423 5420 5416 5413 5411 5408 5407 5405 5404 5404 5404 5406 5407 5409 5411 5414 5418 5423 5429 5439 5451 5466 5482 5496 5509 5521 5530 5540 5549 5557 5565 5572